Time,TemperatureF,DewpointF,PressureIn,WindDirection,WindDirectionDegrees,WindSpeedMPH,WindSpeedGustMPH,Humidity,HourlyPrecipIn,Conditions,Clouds,dailyrainin,SolarRadiationWatts/m^2,SoftwareType,DateUTC
2013-07-16 00:00:00,76.3,58.9,30.09,East,90,1.4,2.9,55,0.00,CLR,SCT,0.00,0.0,WeatherDisplay:10.37,2013-07-16 05:00:00,
2013-07-16 00:05:00,76.1,59.3,30.09,ESE,112,2.4,2.4,56,0.00,CLR,SCT,0.00,0.0,WeatherDisplay:10.37,2013-07-16 05:05:00,
2013-07-16 00:10:00,76.1,59.3,30.09,ESE,112,1.1,2.3,56,0.00,CLR,SCT,0.00,0.0,WeatherDisplay:10.37,2013-07-16 05:10:00,
2013-07-16 00:15:00,75.9,59.1,30.09,ESE,112,1.6,2.3,56,0.00,CLR,SCT,0.00,0.0,WeatherDisplay:10.37,2013-07-16 05:15:00,
2013-07-16 00:20:00,75.9,59.6,30.09,East,90,2.0,3.5,57,0.00,CLR,SCT,0.00,0.0,WeatherDisplay:10.37,2013-07-16 05:20:00,
2013-07-16 00:25:00,75.7,59.4,30.09,SSE,158,0.0,1.1,57,0.00,CLR,SCT,0.00,0.0,WeatherDisplay:10.37,2013-07-16 05:25:00,
2013-07-16 00:30:00,75.7,59.9,30.09,ESE,112,2.6,3.5,58,0.00,CLR,SCT,0.00,0.0,WeatherDisplay:10.37,2013-07-16 05:30:00,
2013-07-16 00:36:00,75.7,59.9,30.09,ESE,112,1.4,2.4,58,0.00,CLR,SCT,0.00,0.0,WeatherDisplay:10.37,2013-07-16 05:36:00,
2013-07-16 00:41:00,75.6,60.2,30.09,ESE,112,1.6,2.4,59,0.00,CLR,SCT,0.00,0.0,WeatherDisplay:10.37,2013-07-16 05:41:00,
2013-07-16 00:46:00,75.6,60.2,30.09,ENE,68,1.6,2.3,59,0.00,CLR,SCT,0.00,0.0,WeatherDisplay:10.37,2013-07-16 05:46:00,
2013-07-16 00:51:00,75.6,60.2,30.12,SSE,158,2.4,2.9,59,0.00,CLR,SCT,0.00,0.0,WeatherDisplay:10.37,2013-07-16 05:51:00,
2013-07-16 00:56:00,75.6,60.2,30.12,SSE,158,2.2,2.4,59,0.00,CLR,SCT,0.00,0.0,WeatherDisplay:10.37,2013-07-16 05:56:00,
2013-07-16 01:01:00,75.4,60.1,30.12,ESE,112,2.6,3.5,59,0.00,CLR,SCT,0.00,0.0,WeatherDisplay:10.37,2013-07-16 06:01:00,
2013-07-16 01:07:00,75.4,60.5,30.09,South,180,2.2,2.3,60,0.00,CLR,SCT,0.00,0.0,WeatherDisplay:10.37,2013-07-16 06:07:00,
2013-07-16 01:12:00,75.4,61.0,30.09,South,180,2.2,4.6,61,0.00,CLR,SCT,0.00,0.0,WeatherDisplay:10.37,2013-07-16 06:12:00,
2013-07-16 01:17:00,75.2,60.8,30.09,SSE,158,3.1,4.6,61,0.00,CLR,SCT,0.00,0.0,WeatherDisplay:10.37,2013-07-16 06:17:00,
2013-07-16 01:22:00,75.2,61.3,30.12,South,180,2.4,3.5,62,0.00,CLR,SCT,0.00,0.0,WeatherDisplay:10.37,2013-07-16 06:22:00,
2013-07-16 01:27:00,75.0,61.1,30.12,SSW,202,3.3,4.6,62,0.00,CLR,SCT,0.00,0.0,WeatherDisplay:10.37,2013-07-16 06:27:00,
2013-07-16 01:32:00,74.8,60.9,30.12,SW,225,2.2,3.5,62,0.00,CLR,SCT,0.00,0.0,WeatherDisplay:10.37,2013-07-16 06:32:00,
2013-07-16 01:38:00,74.7,60.8,30.09,SSE,158,3.3,4.0,62,0.00,CLR,SCT,0.00,0.0,WeatherDisplay:10.37,2013-07-16 06:38:00,
2013-07-16 01:43:00,74.7,61.2,30.09,South,180,3.3,5.8,63,0.00,CLR,SCT,0.00,0.0,WeatherDisplay:10.37,2013-07-16 06:43:00,
2013-07-16 01:48:00,74.5,61.1,30.09,South,180,2.2,2.4,63,0.00,CLR,SCT,0.00,0.0,WeatherDisplay:10.37,2013-07-16 06:48:00,
2013-07-16 01:53:00,74.3,61.3,30.12,SSW,202,2.2,3.5,64,0.00,CLR,SCT,0.00,0.0,WeatherDisplay:10.37,2013-07-16 06:53:00,
2013-07-16 01:58:00,74.1,61.6,30.12,SSE,158,2.2,3.5,65,0.00,CLR,SCT,0.00,0.0,WeatherDisplay:10.37,2013-07-16 06:58:00,
2013-07-16 02:03:00,74.1,61.2,30.12,South,180,2.2,2.6,64,0.00,CLR,SCT,0.00,0.0,WeatherDisplay:10.37,2013-07-16 07:03:00,
2013-07-16 02:08:00,73.9,61.4,30.09,SSW,202,2.2,2.3,65,0.00,CLR,SCT,0.00,0.0,WeatherDisplay:10.37,2013-07-16 07:08:00,
2013-07-16 02:13:00,73.9,61.0,30.09,SSW,202,2.2,3.5,64,0.00,CLR,SCT,0.00,0.0,WeatherDisplay:10.37,2013-07-16 07:13:00,
2013-07-16 02:18:00,73.8,61.3,30.09,South,180,2.0,2.3,65,0.00,CLR,SCT,0.00,0.0,WeatherDisplay:10.37,2013-07-16 07:18:00,
2013-07-16 02:23:00,73.6,61.1,30.09,WSW,248,2.0,2.6,65,0.00,CLR,SCT,0.00,0.0,WeatherDisplay:10.37,2013-07-16 07:23:00,
2013-07-16 02:28:00,73.6,61.1,30.09,SW,225,2.4,3.3,65,0.00,CLR,SCT,0.00,0.0,WeatherDisplay:10.37,2013-07-16 07:28:00,
2013-07-16 02:33:00,73.4,60.9,30.09,WSW,248,1.1,2.3,65,0.00,CLR,SCT,0.00,0.0,WeatherDisplay:10.37,2013-07-16 07:33:00,
2013-07-16 02:38:00,73.2,61.2,30.09,WSW,248,2.6,2.9,66,0.00,CLR,SCT,0.00,0.0,WeatherDisplay:10.37,2013-07-16 07:38:00,
2013-07-16 02:44:00,72.9,61.3,30.09,WSW,248,2.0,2.9,67,0.00,CLR,SCT,0.00,0.0,WeatherDisplay:10.37,2013-07-16 07:44:00,
2013-07-16 02:49:00,72.5,61.3,30.09,WSW,248,1.6,2.3,68,0.00,CLR,SCT,0.00,0.0,WeatherDisplay:10.37,2013-07-16 07:49:00,
2013-07-16 02:54:00,72.3,61.2,30.09,WSW,248,1.1,1.1,68,0.00,CLR,SCT,0.00,0.0,WeatherDisplay:10.37,2013-07-16 07:54:00,
2013-07-16 02:59:00,72.1,61.4,30.09,WSW,248,1.1,2.3,69,0.00,CLR,SCT,0.00,0.0,WeatherDisplay:10.37,2013-07-16 07:59:00,
2013-07-16 03:04:00,72.0,61.2,30.09,WSW,248,1.6,2.3,69,0.00,CLR,SCT,0.00,0.0,WeatherDisplay:10.37,2013-07-16 08:04:00,
2013-07-16 03:09:00,71.8,61.1,30.09,SSW,202,0.0,1.1,69,0.00,CLR,SCT,0.00,0.0,WeatherDisplay:10.37,2013-07-16 08:09:00,
2013-07-16 03:14:00,71.8,61.5,30.09,SSW,202,1.4,2.3,70,0.00,CLR,SCT,0.00,0.0,WeatherDisplay:10.37,2013-07-16 08:14:00,
2013-07-16 03:19:00,71.8,61.5,30.09,SSW,202,1.4,2.3,70,0.00,CLR,SCT,0.00,0.0,WeatherDisplay:10.37,2013-07-16 08:19:00,
2013-07-16 03:25:00,71.8,61.1,30.09,SSE,158,0.0,1.1,69,0.00,CLR,SCT,0.00,0.0,WeatherDisplay:10.37,2013-07-16 08:25:00,
2013-07-16 03:30:00,71.8,61.1,30.09,SSW,202,0.0,1.1,69,0.00,CLR,SCT,0.00,0.0,WeatherDisplay:10.37,2013-07-16 08:30:00,
2013-07-16 03:35:00,71.6,60.5,30.09,South,180,0.0,1.1,68,0.00,CLR,SCT,0.00,0.0,WeatherDisplay:10.37,2013-07-16 08:35:00,
2013-07-16 03:40:00,71.6,60.5,30.09,SE,135,0.9,2.3,68,0.00,CLR,SCT,0.00,0.0,WeatherDisplay:10.37,2013-07-16 08:40:00,
2013-07-16 03:45:00,71.6,60.5,30.09,South,180,1.1,1.6,68,0.00,CLR,SCT,0.00,0.0,WeatherDisplay:10.37,2013-07-16 08:45:00,
2013-07-16 03:50:00,71.4,60.3,30.09,ESE,112,0.0,1.1,68,0.00,CLR,SCT,0.00,0.0,WeatherDisplay:10.37,2013-07-16 08:50:00,
2013-07-16 03:55:00,71.4,60.3,30.12,ESE,112,0.0,0.0,68,0.00,CLR,SCT,0.00,0.0,WeatherDisplay:10.37,2013-07-16 08:55:00,
2013-07-16 04:00:00,71.2,60.1,30.12,ESE,112,0.0,0.0,68,0.00,CLR,SCT,0.00,0.0,WeatherDisplay:10.37,2013-07-16 09:00:00,
2013-07-16 04:06:00,71.2,60.1,30.09,ESE,112,0.0,0.9,68,0.00,CLR,SCT,0.00,0.0,WeatherDisplay:10.37,2013-07-16 09:06:00,
2013-07-16 04:11:00,71.2,60.1,30.09,SSE,158,0.0,1.1,68,0.00,CLR,SCT,0.00,0.0,WeatherDisplay:10.37,2013-07-16 09:11:00,
2013-07-16 04:16:00,71.1,60.0,30.09,SSE,158,0.0,0.0,68,0.00,CLR,SCT,0.00,0.0,WeatherDisplay:10.37,2013-07-16 09:16:00,
2013-07-16 04:21:00,71.1,60.0,30.09,South,180,0.0,1.1,68,0.00,CLR,SCT,0.00,0.0,WeatherDisplay:10.37,2013-07-16 09:21:00,
2013-07-16 04:26:00,71.1,60.8,30.09,WSW,248,1.6,2.3,70,0.00,CLR,SCT,0.00,0.0,WeatherDisplay:10.37,2013-07-16 09:26:00,
2013-07-16 04:31:00,71.1,60.8,30.09,SSE,158,1.4,2.3,70,0.00,CLR,SCT,0.00,0.0,WeatherDisplay:10.37,2013-07-16 09:31:00,
2013-07-16 04:36:00,71.1,60.8,30.09,SSE,158,0.0,0.0,70,0.00,CLR,SCT,0.00,0.0,WeatherDisplay:10.37,2013-07-16 09:36:00,
2013-07-16 04:42:00,71.1,60.4,30.09,ESE,112,2.0,2.3,69,0.00,CLR,SCT,0.00,0.0,WeatherDisplay:10.37,2013-07-16 09:42:00,
2013-07-16 04:47:00,71.1,60.4,30.09,ENE,68,1.1,1.1,69,0.00,CLR,SCT,0.00,0.0,WeatherDisplay:10.37,2013-07-16 09:47:00,
2013-07-16 04:52:00,70.9,60.2,30.09,East,90,1.4,1.6,69,0.00,CLR,SCT,0.00,0.0,WeatherDisplay:10.37,2013-07-16 09:52:00,
2013-07-16 04:57:00,70.7,60.0,30.09,ESE,112,1.4,1.6,69,0.00,CLR,SCT,0.00,0.0,WeatherDisplay:10.37,2013-07-16 09:57:00,
2013-07-16 05:02:00,70.7,60.0,30.09,ESE,112,0.0,0.0,69,0.00,CLR,SCT,0.00,0.0,WeatherDisplay:10.37,2013-07-16 10:02:00,
2013-07-16 05:07:00,70.5,59.9,30.12,ESE,112,0.0,0.0,69,0.00,CLR,SCT,0.00,0.0,WeatherDisplay:10.37,2013-07-16 10:07:00,
2013-07-16 05:12:00,70.3,59.7,30.12,ESE,112,1.1,1.6,69,0.00,CLR,SCT,0.00,0.0,WeatherDisplay:10.37,2013-07-16 10:12:00,
2013-07-16 05:18:00,70.3,59.7,30.12,East,90,1.4,2.3,69,0.00,CLR,SCT,0.00,0.0,WeatherDisplay:10.37,2013-07-16 10:18:00,
2013-07-16 05:23:00,70.2,59.5,30.12,East,90,0.0,1.1,69,0.00,CLR,SCT,0.00,0.0,WeatherDisplay:10.37,2013-07-16 10:23:00,
2013-07-16 05:28:00,70.0,59.3,30.12,East,90,1.4,2.3,69,0.00,CLR,SCT,0.00,0.0,WeatherDisplay:10.37,2013-07-16 10:28:00,
2013-07-16 05:33:00,69.8,59.6,30.12,East,90,1.1,1.4,70,0.00,CLR,SCT,0.00,0.0,WeatherDisplay:10.37,2013-07-16 10:33:00,
2013-07-16 05:38:00,69.8,59.6,30.12,East,90,0.0,0.0,70,0.00,CLR,SCT,0.00,0.0,WeatherDisplay:10.37,2013-07-16 10:38:00,
2013-07-16 05:43:00,69.6,59.8,30.12,East,90,0.0,0.0,71,0.00,CLR,SCT,0.00,0.0,WeatherDisplay:10.37,2013-07-16 10:43:00,
2013-07-16 05:49:00,69.6,59.8,30.12,East,90,1.6,2.3,71,0.00,CLR,SCT,0.00,0.0,WeatherDisplay:10.37,2013-07-16 10:49:00,
2013-07-16 05:54:00,69.6,59.8,30.09,East,90,1.6,2.3,71,0.00,CLR,SCT,0.00,0.0,WeatherDisplay:10.37,2013-07-16 10:54:00,
2013-07-16 05:59:00,69.6,60.2,30.09,East,90,0.0,1.1,72,0.00,CLR,SCT,0.00,0.0,WeatherDisplay:10.37,2013-07-16 10:59:00,
2013-07-16 06:04:00,69.6,60.2,30.09,East,90,0.0,1.1,72,0.00,OVC,SCT,0.00,0.0,WeatherDisplay:10.37,2013-07-16 11:04:00,
2013-07-16 06:09:00,69.4,60.4,30.12,East,90,0.0,0.0,73,0.00,FEW,SCT,0.00,0.0,WeatherDisplay:10.37,2013-07-16 11:09:00,
2013-07-16 06:14:00,69.4,60.0,30.12,East,90,0.0,1.1,72,0.00,FEW,SCT,0.00,0.0,WeatherDisplay:10.37,2013-07-16 11:14:00,
2013-07-16 06:19:00,69.4,60.4,30.12,East,90,0.0,0.0,73,0.00,FEW,SCT,0.00,0.0,WeatherDisplay:10.37,2013-07-16 11:19:00,
2013-07-16 06:24:00,69.4,60.4,30.12,East,90,0.0,0.0,73,0.00,FEW,SCT,0.00,0.0,WeatherDisplay:10.37,2013-07-16 11:24:00,
2013-07-16 06:29:00,69.4,60.4,30.12,East,90,0.0,0.0,73,0.00,FEW,SCT,0.00,0.0,WeatherDisplay:10.37,2013-07-16 11:29:00,
2013-07-16 06:34:00,69.4,60.4,30.12,East,90,0.0,2.3,73,0.00,FEW,SCT,0.00,0.0,WeatherDisplay:10.37,2013-07-16 11:34:00,
2013-07-16 06:39:00,69.4,60.4,30.12,East,90,0.0,1.1,73,0.00,FEW,SCT,0.00,0.0,WeatherDisplay:10.37,2013-07-16 11:39:00,
2013-07-16 06:45:00,69.4,60.4,30.12,East,90,0.0,2.0,73,0.00,FEW,SCT,0.00,0.0,WeatherDisplay:10.37,2013-07-16 11:45:00,
2013-07-16 06:50:00,69.4,60.4,30.12,East,90,0.0,1.1,73,0.00,FEW,SCT,0.00,0.0,WeatherDisplay:10.37,2013-07-16 11:50:00,
2013-07-16 06:55:00,69.4,60.4,30.12,East,90,0.0,0.0,73,0.00,SCT,,0.00,0.0,WeatherDisplay:10.37,2013-07-16 11:55:00,
2013-07-16 07:00:00,69.4,60.4,30.12,East,90,0.0,0.0,73,0.00,SCT,,0.00,0.0,WeatherDisplay:10.37,2013-07-16 12:00:00,
2013-07-16 07:06:00,69.6,60.6,30.12,East,90,0.0,0.0,73,0.00,SCT,,0.00,0.0,WeatherDisplay:10.37,2013-07-16 12:06:00,
2013-07-16 07:11:00,69.8,60.8,30.12,East,90,0.0,0.9,73,0.00,SCT,,0.00,0.0,WeatherDisplay:10.37,2013-07-16 12:11:00,
2013-07-16 07:16:00,70.2,61.5,30.12,East,90,0.0,0.0,74,0.00,SCT,,0.00,0.0,WeatherDisplay:10.37,2013-07-16 12:16:00,
2013-07-16 07:21:00,70.3,62.0,30.12,East,90,0.0,0.0,75,0.00,SCT,,0.00,0.0,WeatherDisplay:10.37,2013-07-16 12:21:00,
2013-07-16 07:26:00,70.5,62.2,30.12,East,90,0.0,0.0,75,0.00,SCT,,0.00,0.0,WeatherDisplay:10.37,2013-07-16 12:26:00,
2013-07-16 07:31:00,71.1,62.7,30.12,South,180,1.4,2.3,75,0.00,SCT,,0.00,0.0,WeatherDisplay:10.37,2013-07-16 12:31:00,
2013-07-16 07:37:00,71.6,63.3,30.15,SSW,202,0.0,2.3,75,0.00,SCT,,0.00,0.0,WeatherDisplay:10.37,2013-07-16 12:37:00,
2013-07-16 07:42:00,72.1,63.4,30.15,ESE,112,1.4,2.3,74,0.00,BKN,SCT,0.00,0.0,WeatherDisplay:10.37,2013-07-16 12:42:00,
2013-07-16 07:47:00,72.5,63.4,30.15,SSE,158,0.9,1.1,73,0.00,BKN,SCT,0.00,0.0,WeatherDisplay:10.37,2013-07-16 12:47:00,
2013-07-16 07:52:00,73.0,62.3,30.15,SSW,202,1.1,2.0,69,0.00,BKN,SCT,0.00,0.0,WeatherDisplay:10.37,2013-07-16 12:52:00,
2013-07-16 07:57:00,73.8,62.5,30.15,WSW,248,1.4,1.6,68,0.00,BKN,SCT,0.00,0.0,WeatherDisplay:10.37,2013-07-16 12:57:00,
2013-07-16 08:02:00,73.9,60.5,30.15,South,180,1.1,2.3,63,0.00,BKN,SCT,0.00,28.2,WeatherDisplay:10.37,2013-07-16 13:02:00,
2013-07-16 08:07:00,74.5,59.7,30.15,WSW,248,2.4,2.6,60,0.00,BKN,SCT,0.00,0.0,WeatherDisplay:10.37,2013-07-16 13:07:00,
2013-07-16 08:12:00,74.8,59.5,30.15,SSE,158,1.4,3.5,59,0.00,BKN,SCT,0.00,0.0,WeatherDisplay:10.37,2013-07-16 13:12:00,
2013-07-16 08:17:00,75.2,60.4,30.15,SSW,202,2.9,3.6,60,0.00,BKN,SCT,0.00,0.0,WeatherDisplay:10.37,2013-07-16 13:17:00,
2013-07-16 08:23:00,75.6,57.2,30.18,South,180,3.1,4.6,53,0.00,BKN,SCT,0.00,0.0,WeatherDisplay:10.37,2013-07-16 13:23:00,
2013-07-16 08:28:00,75.9,56.5,30.18,ESE,112,2.2,4.6,51,0.00,BKN,SCT,0.00,0.0,WeatherDisplay:10.37,2013-07-16 13:28:00,
2013-07-16 08:33:00,75.9,54.8,30.18,WSW,248,2.9,3.5,48,0.00,OVC,SCT,0.00,0.0,WeatherDisplay:10.37,2013-07-16 13:33:00,
2013-07-16 08:38:00,76.5,55.3,30.18,ESE,112,2.4,4.6,48,0.00,OVC,SCT,0.00,0.0,WeatherDisplay:10.37,2013-07-16 13:38:00,
2013-07-16 08:43:00,76.8,55.1,30.18,SE,135,2.9,3.5,47,0.00,OVC,SCT,0.00,0.0,WeatherDisplay:10.37,2013-07-16 13:43:00,
2013-07-16 08:48:00,77.2,55.4,30.18,SSE,158,2.0,3.6,47,0.00,OVC,SCT,0.00,0.0,WeatherDisplay:10.37,2013-07-16 13:48:00,
2013-07-16 08:53:00,77.5,56.3,30.18,SW,225,2.4,3.6,48,0.00,OVC,SCT,0.00,0.0,WeatherDisplay:10.37,2013-07-16 13:53:00,
2013-07-16 08:58:00,77.7,55.9,30.18,SSW,202,2.9,5.8,47,0.00,OVC,SCT,0.00,0.0,WeatherDisplay:10.37,2013-07-16 13:58:00,
2013-07-16 09:04:00,77.9,56.6,30.18,South,180,3.6,5.8,48,0.00,OVC,SCT,0.00,0.0,WeatherDisplay:10.37,2013-07-16 14:04:00,
2013-07-16 09:09:00,78.3,55.8,30.18,SSE,158,2.2,4.6,46,0.00,OVC,SCT,0.00,0.0,WeatherDisplay:10.37,2013-07-16 14:09:00,
2013-07-16 09:14:00,78.3,53.9,30.18,South,180,3.3,5.4,43,0.00,OVC,SCT,0.00,0.0,WeatherDisplay:10.37,2013-07-16 14:14:00,
2013-07-16 09:19:00,78.3,52.6,30.18,WSW,248,3.6,4.9,41,0.00,OVC,SCT,0.00,0.0,WeatherDisplay:10.37,2013-07-16 14:19:00,
2013-07-16 09:24:00,78.8,53.1,30.15,SW,225,3.3,4.6,41,0.00,OVC,SCT,0.00,100.0,WeatherDisplay:10.37,2013-07-16 14:24:00,
2013-07-16 09:30:00,78.6,52.3,30.15,WNW,292,3.3,4.6,40,0.00,OVC,SCT,0.00,100.0,WeatherDisplay:10.37,2013-07-16 14:30:00,
2013-07-16 09:35:00,78.8,50.3,30.15,SSW,202,2.6,4.6,37,0.00,OVC,SCT,0.00,100.0,WeatherDisplay:10.37,2013-07-16 14:35:00,
2013-07-16 09:40:00,79.3,52.2,30.18,WSW,248,3.8,4.3,39,0.00,OVC,SCT,0.00,100.0,WeatherDisplay:10.37,2013-07-16 14:40:00,
2013-07-16 09:46:00,79.5,53.1,30.18,WSW,248,2.2,3.8,40,0.00,OVC,SCT,0.00,100.0,WeatherDisplay:10.37,2013-07-16 14:46:00,
2013-07-16 09:51:00,79.9,54.1,30.18,ESE,112,1.4,4.6,41,0.00,OVC,SCT,0.00,100.0,WeatherDisplay:10.37,2013-07-16 14:51:00,
2013-07-16 09:56:00,80.2,55.1,30.18,SSW,202,3.3,3.5,42,0.00,OVC,SCT,0.00,100.0,WeatherDisplay:10.37,2013-07-16 14:56:00,
2013-07-16 10:01:00,80.2,49.3,30.18,West,270,3.1,6.4,34,0.00,OVC,SCT,0.00,100.0,WeatherDisplay:10.37,2013-07-16 15:01:00,
2013-07-16 10:06:00,80.2,50.1,30.18,SW,225,4.3,6.0,35,0.00,OVC,SCT,0.00,100.0,WeatherDisplay:10.37,2013-07-16 15:06:00,
2013-07-16 10:11:00,80.8,50.6,30.18,WSW,248,3.8,7.4,35,0.00,OVC,SCT,0.00,100.0,WeatherDisplay:10.37,2013-07-16 15:11:00,
2013-07-16 10:17:00,80.8,50.6,30.18,WSW,248,5.6,7.1,35,0.00,OVC,SCT,0.00,100.0,WeatherDisplay:10.37,2013-07-16 15:17:00,
2013-07-16 10:22:00,80.8,51.3,30.18,WSW,248,6.2,6.9,36,0.00,OVC,SCT,0.00,200.0,WeatherDisplay:10.37,2013-07-16 15:22:00,
2013-07-16 10:27:00,80.8,52.8,30.18,SSW,202,3.6,4.9,38,0.00,OVC,SCT,0.00,200.0,WeatherDisplay:10.37,2013-07-16 15:27:00,
2013-07-16 10:32:00,81.5,53.4,30.18,SSW,202,4.0,5.8,38,0.00,OVC,SCT,0.00,200.0,WeatherDisplay:10.37,2013-07-16 15:32:00,
2013-07-16 10:37:00,82.2,53.4,30.18,WSW,248,4.7,5.8,37,0.00,OVC,SCT,0.00,200.0,WeatherDisplay:10.37,2013-07-16 15:37:00,
2013-07-16 10:42:00,81.9,53.8,30.18,WSW,248,4.7,5.8,38,0.00,OVC,SCT,0.00,200.0,WeatherDisplay:10.37,2013-07-16 15:42:00,
2013-07-16 10:47:00,81.7,52.9,30.18,WSW,248,4.7,6.2,37,0.00,OVC,SCT,0.00,200.0,WeatherDisplay:10.37,2013-07-16 15:47:00,
2013-07-16 10:52:00,81.9,52.3,30.15,SSW,202,3.1,5.8,36,0.00,OVC,SCT,0.00,200.0,WeatherDisplay:10.37,2013-07-16 15:52:00,
2013-07-16 10:57:00,81.9,53.8,30.15,West,270,4.5,6.9,38,0.00,OVC,SCT,0.00,200.0,WeatherDisplay:10.37,2013-07-16 15:57:00,
2013-07-16 11:02:00,82.0,53.9,30.15,WSW,248,2.4,4.6,38,0.00,OVC,SCT,0.00,200.0,WeatherDisplay:10.37,2013-07-16 16:02:00,
2013-07-16 11:07:00,82.4,55.7,30.15,SSW,202,3.3,5.8,40,0.00,OVC,SCT,0.00,300.0,WeatherDisplay:10.37,2013-07-16 16:07:00,
2013-07-16 11:12:00,82.9,55.4,30.15,SSE,158,3.1,4.6,39,0.00,OVC,SCT,0.00,300.0,WeatherDisplay:10.37,2013-07-16 16:12:00,
2013-07-16 11:17:00,83.5,53.7,30.15,WSW,248,2.4,5.8,36,0.00,OVC,SCT,0.00,300.0,WeatherDisplay:10.37,2013-07-16 16:17:00,
2013-07-16 11:22:00,83.7,53.9,30.18,East,90,3.3,5.8,36,0.00,OVC,SCT,0.00,300.0,WeatherDisplay:10.37,2013-07-16 16:22:00,
2013-07-16 11:28:00,83.8,55.5,30.18,WSW,248,3.3,5.8,38,0.00,OVC,SCT,0.00,300.0,WeatherDisplay:10.37,2013-07-16 16:28:00,
2013-07-16 11:33:00,84.4,53.7,30.18,ENE,68,4.9,6.9,35,0.00,OVC,SCT,0.00,300.0,WeatherDisplay:10.37,2013-07-16 16:33:00,
2013-07-16 11:38:00,84.4,53.7,30.15,ESE,112,4.5,5.9,35,0.00,OVC,SCT,0.00,300.0,WeatherDisplay:10.37,2013-07-16 16:38:00,
2013-07-16 11:44:00,84.2,54.4,30.15,WSW,248,3.8,5.8,36,0.00,OVC,SCT,0.00,300.0,WeatherDisplay:10.37,2013-07-16 16:44:00,
2013-07-16 11:49:00,84.4,52.9,30.15,WSW,248,4.3,4.6,34,0.00,OVC,SCT,0.00,300.0,WeatherDisplay:10.37,2013-07-16 16:49:00,
2013-07-16 11:54:00,84.2,52.8,30.18,West,270,3.6,4.6,34,0.00,OVC,SCT,0.00,400.0,WeatherDisplay:10.37,2013-07-16 16:54:00,
2013-07-16 12:00:00,84.2,52.8,30.18,WSW,248,6.0,7.1,34,0.00,OVC,SCT,0.00,400.0,WeatherDisplay:10.37,2013-07-16 17:00:00,
2013-07-16 12:05:00,84.4,52.1,30.18,South,180,3.6,5.9,33,0.00,OVC,SCT,0.00,400.0,WeatherDisplay:10.37,2013-07-16 17:05:00,
2013-07-16 12:10:00,84.4,52.1,30.18,SSW,202,4.9,6.9,33,0.00,OVC,SCT,0.00,400.0,WeatherDisplay:10.37,2013-07-16 17:10:00,
2013-07-16 12:15:00,84.9,53.4,30.18,SSW,202,3.8,5.9,34,0.00,OVC,SCT,0.00,400.0,WeatherDisplay:10.37,2013-07-16 17:15:00,
2013-07-16 12:20:00,85.6,55.6,30.18,SSW,202,4.7,6.9,36,0.00,OVC,SCT,0.00,400.0,WeatherDisplay:10.37,2013-07-16 17:20:00,
2013-07-16 12:25:00,85.1,52.8,30.15,SSW,202,5.6,5.9,33,0.00,OVC,SCT,0.00,400.0,WeatherDisplay:10.37,2013-07-16 17:25:00,
2013-07-16 12:30:00,85.1,52.8,30.15,SW,225,6.2,8.1,33,0.00,OVC,SCT,0.00,400.0,WeatherDisplay:10.37,2013-07-16 17:30:00,
2013-07-16 12:35:00,85.3,52.9,30.15,WNW,292,2.4,3.5,33,0.00,OVC,SCT,0.00,400.0,WeatherDisplay:10.37,2013-07-16 17:35:00,
2013-07-16 12:40:00,85.5,52.2,30.21,SSE,158,3.3,5.8,32,0.00,OVC,SCT,0.00,400.0,WeatherDisplay:10.37,2013-07-16 17:40:00,
2013-07-16 12:46:00,86.2,52.9,30.21,SSW,202,3.3,6.9,32,0.00,OVC,SCT,0.00,400.0,WeatherDisplay:10.37,2013-07-16 17:46:00,
2013-07-16 12:51:00,86.0,52.7,30.18,SW,225,5.6,6.9,32,0.00,OVC,SCT,0.00,400.0,WeatherDisplay:10.37,2013-07-16 17:51:00,
2013-07-16 12:56:00,86.5,55.6,30.18,South,180,2.4,5.8,35,0.00,OVC,SCT,0.00,400.0,WeatherDisplay:10.37,2013-07-16 17:56:00,
2013-07-16 13:02:00,86.2,52.9,30.18,SSW,202,3.1,3.5,32,0.00,OVC,SCT,0.00,400.0,WeatherDisplay:10.37,2013-07-16 18:02:00,
2013-07-16 13:07:00,86.4,52.2,30.18,South,180,3.8,5.4,31,0.00,OVC,SCT,0.00,400.0,WeatherDisplay:10.37,2013-07-16 18:07:00,
2013-07-16 13:12:00,86.9,52.6,30.18,SSW,202,3.6,4.6,31,0.00,OVC,SCT,0.00,400.0,WeatherDisplay:10.37,2013-07-16 18:12:00,
2013-07-16 13:17:00,86.7,55.0,30.18,SSE,158,2.9,3.5,34,0.00,OVC,SCT,0.00,300.0,WeatherDisplay:10.37,2013-07-16 18:17:00,
2013-07-16 13:22:00,87.1,53.6,30.18,SSW,202,5.6,5.8,32,0.00,OVC,SCT,0.00,300.0,WeatherDisplay:10.37,2013-07-16 18:22:00,
2013-07-16 13:27:00,86.9,52.6,30.18,South,180,2.6,5.4,31,0.00,OVC,SCT,0.00,300.0,WeatherDisplay:10.37,2013-07-16 18:27:00,
2013-07-16 13:32:00,87.1,52.8,30.18,SSE,158,3.8,9.2,31,0.00,OVC,SCT,0.00,300.0,WeatherDisplay:10.37,2013-07-16 18:32:00,
2013-07-16 13:37:00,86.9,51.7,30.15,South,180,6.4,8.1,30,0.00,OVC,SCT,0.00,300.0,WeatherDisplay:10.37,2013-07-16 18:37:00,
2013-07-16 13:43:00,87.1,51.9,30.15,WSW,248,4.7,9.7,30,0.00,OVC,SCT,0.00,300.0,WeatherDisplay:10.37,2013-07-16 18:43:00,
2013-07-16 13:48:00,87.3,52.0,30.15,WSW,248,5.9,8.1,30,0.00,OVC,SCT,0.00,300.0,WeatherDisplay:10.37,2013-07-16 18:48:00,
2013-07-16 13:53:00,87.3,52.0,30.15,SW,225,4.5,5.8,30,0.00,OVC,SCT,0.00,300.0,WeatherDisplay:10.37,2013-07-16 18:53:00,
2013-07-16 13:58:00,87.3,52.0,30.15,SSE,158,3.8,5.8,30,0.00,OVC,SCT,0.00,300.0,WeatherDisplay:10.37,2013-07-16 18:58:00,
2013-07-16 14:03:00,87.4,53.1,30.15,ESE,112,3.6,5.8,31,0.00,OVC,SCT,0.00,300.0,WeatherDisplay:10.37,2013-07-16 19:03:00,
2013-07-16 14:08:00,87.6,52.4,30.18,ESE,112,4.9,5.8,30,0.00,OVC,SCT,0.00,300.0,WeatherDisplay:10.37,2013-07-16 19:08:00,
2013-07-16 14:13:00,88.2,52.8,30.18,South,180,5.9,8.1,30,0.00,OVC,SCT,0.00,300.0,WeatherDisplay:10.37,2013-07-16 19:13:00,
2013-07-16 14:18:00,88.2,53.7,30.18,SE,135,4.5,6.9,31,0.00,OVC,SCT,0.00,300.0,WeatherDisplay:10.37,2013-07-16 19:18:00,
2013-07-16 14:24:00,88.2,52.8,30.18,WSW,248,4.3,9.2,30,0.00,OVC,SCT,0.00,300.0,WeatherDisplay:10.37,2013-07-16 19:24:00,
2013-07-16 14:29:00,88.0,52.7,30.18,ESE,112,4.9,7.8,30,0.00,OVC,SCT,0.00,300.0,WeatherDisplay:10.37,2013-07-16 19:29:00,
2013-07-16 14:34:00,87.8,51.6,30.18,South,180,4.5,9.2,29,0.00,OVC,SCT,0.00,300.0,WeatherDisplay:10.37,2013-07-16 19:34:00,
2013-07-16 14:39:00,88.0,51.7,30.15,ESE,112,3.6,5.8,29,0.00,OVC,SCT,0.00,300.0,WeatherDisplay:10.37,2013-07-16 19:39:00,
2013-07-16 14:44:00,88.2,51.9,30.15,SSW,202,4.5,9.2,29,0.00,OVC,SCT,0.00,400.0,WeatherDisplay:10.37,2013-07-16 19:44:00,
2013-07-16 14:49:00,88.5,52.2,30.15,East,90,4.5,6.9,29,0.00,OVC,SCT,0.00,100.0,WeatherDisplay:10.37,2013-07-16 19:49:00,
2013-07-16 14:54:00,88.3,53.0,30.15,SSE,158,3.8,7.6,30,0.00,OVC,SCT,0.00,400.0,WeatherDisplay:10.37,2013-07-16 19:54:00,
2013-07-16 14:59:00,88.5,52.2,30.15,WSW,248,5.6,6.9,29,0.00,OVC,SCT,0.00,400.0,WeatherDisplay:10.37,2013-07-16 19:59:00,
2013-07-16 15:04:00,88.9,53.4,30.15,SSW,202,4.9,6.9,30,0.00,OVC,SCT,0.00,300.0,WeatherDisplay:10.37,2013-07-16 20:04:00,
2013-07-16 15:09:00,88.9,53.4,30.15,SE,135,6.2,8.5,30,0.00,OVC,SCT,0.00,300.0,WeatherDisplay:10.37,2013-07-16 20:09:00,
2013-07-16 15:14:00,89.1,52.7,30.15,SSW,202,4.0,6.9,29,0.00,OVC,SCT,0.00,300.0,WeatherDisplay:10.37,2013-07-16 20:14:00,
2013-07-16 15:19:00,89.2,53.7,30.15,South,180,4.9,6.9,30,0.00,OVC,SCT,0.00,300.0,WeatherDisplay:10.37,2013-07-16 20:19:00,
2013-07-16 15:24:00,89.2,52.8,30.15,ESE,112,4.5,5.8,29,0.00,OVC,SCT,0.00,300.0,WeatherDisplay:10.37,2013-07-16 20:24:00,
2013-07-16 15:30:00,89.2,53.7,30.15,South,180,2.6,4.6,30,0.00,OVC,SCT,0.00,300.0,WeatherDisplay:10.37,2013-07-16 20:30:00,
2013-07-16 15:35:00,89.2,53.7,30.15,SSE,158,4.3,5.8,30,0.00,OVC,SCT,0.00,300.0,WeatherDisplay:10.37,2013-07-16 20:35:00,
2013-07-16 15:40:00,88.7,52.4,30.12,SSW,202,3.1,4.6,29,0.00,OVC,SCT,0.00,300.0,WeatherDisplay:10.37,2013-07-16 20:40:00,
2013-07-16 15:45:00,89.2,52.8,30.12,East,90,4.9,5.8,29,0.00,OVC,SCT,0.00,300.0,WeatherDisplay:10.37,2013-07-16 20:45:00,
2013-07-16 15:50:00,89.6,53.1,30.12,SSE,158,4.3,5.8,29,0.00,OVC,SCT,0.00,200.0,WeatherDisplay:10.37,2013-07-16 20:50:00,
2013-07-16 15:55:00,88.9,52.5,30.15,South,180,3.8,5.4,29,0.00,OVC,SCT,0.00,0.0,WeatherDisplay:10.37,2013-07-16 20:55:00,
2013-07-16 16:00:00,88.3,52.0,30.15,South,180,4.7,5.8,29,0.00,OVC,SCT,0.00,0.0,WeatherDisplay:10.37,2013-07-16 21:00:00,
2013-07-16 16:05:00,88.5,53.1,30.12,SSE,158,4.9,6.0,30,0.00,OVC,SCT,0.00,200.0,WeatherDisplay:10.37,2013-07-16 21:05:00,
2013-07-16 16:10:00,88.7,53.3,30.12,ESE,112,4.9,6.0,30,0.00,OVC,SCT,0.00,100.0,WeatherDisplay:10.37,2013-07-16 21:10:00,
2013-07-16 16:16:00,88.7,52.4,30.12,SSE,158,4.0,4.6,29,0.00,OVC,SCT,0.00,200.0,WeatherDisplay:10.37,2013-07-16 21:16:00,
2013-07-16 16:21:00,89.1,53.6,30.15,SSE,158,3.6,5.8,30,0.00,OVC,SCT,0.00,200.0,WeatherDisplay:10.37,2013-07-16 21:21:00,
2013-07-16 16:26:00,89.1,52.7,30.15,SSE,158,3.3,7.8,29,0.00,OVC,SCT,0.00,200.0,WeatherDisplay:10.37,2013-07-16 21:26:00,
2013-07-16 16:31:00,89.2,52.8,30.15,SSE,158,4.5,7.6,29,0.00,OVC,SCT,0.00,200.0,WeatherDisplay:10.37,2013-07-16 21:31:00,
2013-07-16 16:36:00,89.2,53.7,30.12,SSW,202,3.6,5.8,30,0.00,OVC,SCT,0.00,200.0,WeatherDisplay:10.37,2013-07-16 21:36:00,
2013-07-16 16:41:00,89.8,53.3,30.12,South,180,3.3,6.9,29,0.00,OVC,SCT,0.00,100.0,WeatherDisplay:10.37,2013-07-16 21:41:00,
2013-07-16 16:46:00,90.0,53.4,30.12,WSW,248,4.0,8.5,29,0.00,OVC,SCT,0.00,200.0,WeatherDisplay:10.37,2013-07-16 21:46:00,
2013-07-16 16:52:00,89.8,52.3,30.12,WNW,292,3.3,5.8,28,0.00,OVC,SCT,0.00,200.0,WeatherDisplay:10.37,2013-07-16 21:52:00,
2013-07-16 16:57:00,90.0,52.5,30.12,South,180,3.1,3.6,28,0.00,OVC,SCT,0.00,100.0,WeatherDisplay:10.37,2013-07-16 21:57:00,
2013-07-16 17:02:00,89.6,52.2,30.12,South,180,4.3,8.1,28,0.00,OVC,SCT,0.00,100.0,WeatherDisplay:10.37,2013-07-16 22:02:00,
2013-07-16 17:07:00,89.8,53.3,30.12,East,90,3.1,5.8,29,0.00,OVC,SCT,0.00,100.0,WeatherDisplay:10.37,2013-07-16 22:07:00,
2013-07-16 17:12:00,89.4,53.0,30.12,WSW,248,4.3,6.9,29,0.00,OVC,SCT,0.00,0.0,WeatherDisplay:10.37,2013-07-16 22:12:00,
2013-07-16 17:17:00,89.2,53.7,30.12,SSW,202,3.8,4.6,30,0.00,OVC,SCT,0.00,100.0,WeatherDisplay:10.37,2013-07-16 22:17:00,
2013-07-16 17:22:00,89.4,53.0,30.12,ESE,112,3.1,5.8,29,0.00,OVC,SCT,0.00,100.0,WeatherDisplay:10.37,2013-07-16 22:22:00,
2013-07-16 17:27:00,89.2,52.8,30.12,SSW,202,3.6,5.8,29,0.00,OVC,SCT,0.00,0.0,WeatherDisplay:10.37,2013-07-16 22:27:00,
2013-07-16 17:33:00,88.9,52.5,30.12,South,180,4.5,5.8,29,0.00,OVC,SCT,0.00,0.0,WeatherDisplay:10.37,2013-07-16 22:33:00,
2013-07-16 17:38:00,88.2,52.8,30.15,South,180,3.3,4.6,30,0.00,OVC,SCT,0.00,0.0,WeatherDisplay:10.37,2013-07-16 22:38:00,
2013-07-16 17:43:00,87.6,53.2,30.15,WSW,248,3.1,6.9,31,0.00,OVC,SCT,0.00,0.0,WeatherDisplay:10.37,2013-07-16 22:43:00,
2013-07-16 17:48:00,88.0,52.7,30.15,South,180,4.0,6.9,30,0.00,OVC,SCT,0.00,0.0,WeatherDisplay:10.37,2013-07-16 22:48:00,
2013-07-16 17:54:00,88.9,54.3,30.15,South,180,3.1,4.9,31,0.00,OVC,SCT,0.00,0.0,WeatherDisplay:10.37,2013-07-16 22:54:00,
2013-07-16 17:59:00,88.7,54.2,30.15,ESE,112,3.8,5.6,31,0.00,OVC,SCT,0.00,0.0,WeatherDisplay:10.37,2013-07-16 22:59:00,
2013-07-16 18:04:00,87.8,52.5,30.15,SSW,202,3.6,5.8,30,0.00,OVC,SCT,0.00,0.0,WeatherDisplay:10.37,2013-07-16 23:04:00,
2013-07-16 18:09:00,87.6,53.2,30.15,SSW,202,3.6,5.8,31,0.00,OVC,SCT,0.00,0.0,WeatherDisplay:10.37,2013-07-16 23:09:00,
2013-07-16 18:14:00,87.8,54.3,30.15,SSW,202,4.5,5.8,32,0.00,OVC,SCT,0.00,0.0,WeatherDisplay:10.37,2013-07-16 23:14:00,
2013-07-16 18:19:00,88.2,54.6,30.15,ESE,112,4.0,5.6,32,0.00,OVC,SCT,0.00,0.0,WeatherDisplay:10.37,2013-07-16 23:19:00,
2013-07-16 18:24:00,88.3,53.9,30.15,South,180,4.3,5.8,31,0.00,OVC,SCT,0.00,0.0,WeatherDisplay:10.37,2013-07-16 23:24:00,
2013-07-16 18:29:00,88.3,53.0,30.15,SSE,158,4.7,7.4,30,0.00,OVC,SCT,0.00,0.0,WeatherDisplay:10.37,2013-07-16 23:29:00,
2013-07-16 18:34:00,88.2,53.7,30.15,SSE,158,2.2,4.6,31,0.00,OVC,SCT,0.00,0.0,WeatherDisplay:10.37,2013-07-16 23:34:00,
2013-07-16 18:40:00,88.2,54.6,30.12,ESE,112,3.1,4.3,32,0.00,OVC,SCT,0.00,0.0,WeatherDisplay:10.37,2013-07-16 23:40:00,
2013-07-16 18:45:00,88.0,54.4,30.12,West,270,2.6,4.6,32,0.00,OVC,SCT,0.00,0.0,WeatherDisplay:10.37,2013-07-16 23:45:00,
2013-07-16 18:50:00,88.2,54.6,30.12,East,90,2.2,3.5,32,0.00,OVC,SCT,0.00,0.0,WeatherDisplay:10.37,2013-07-16 23:50:00,
2013-07-16 18:55:00,87.8,54.3,30.12,South,180,3.3,5.8,32,0.00,OVC,SCT,0.00,0.0,WeatherDisplay:10.37,2013-07-16 23:55:00,
2013-07-16 19:00:00,87.6,54.1,30.12,SSE,158,3.1,3.6,32,0.00,OVC,SCT,0.00,0.0,WeatherDisplay:10.37,2013-07-17 00:00:00,
2013-07-16 19:05:00,87.6,54.1,30.15,ESE,112,2.4,3.5,32,0.00,OVC,SCT,0.00,0.0,WeatherDisplay:10.37,2013-07-17 00:05:00,
2013-07-16 19:10:00,87.6,55.0,30.15,South,180,2.2,2.9,33,0.00,OVC,SCT,0.00,0.0,WeatherDisplay:10.37,2013-07-17 00:10:00,
2013-07-16 19:16:00,87.4,54.0,30.15,South,180,3.3,5.8,32,0.00,OVC,SCT,0.00,0.0,WeatherDisplay:10.37,2013-07-17 00:16:00,
2013-07-16 19:21:00,87.3,53.8,30.12,SSE,158,3.3,5.8,32,0.00,OVC,SCT,0.00,0.0,WeatherDisplay:10.37,2013-07-17 00:21:00,
2013-07-16 19:26:00,87.3,53.8,30.12,SSE,158,2.9,4.6,32,0.00,OVC,SCT,0.00,0.0,WeatherDisplay:10.37,2013-07-17 00:26:00,
2013-07-16 19:32:00,87.1,53.6,30.12,WSW,248,3.1,3.6,32,0.00,OVC,SCT,0.00,0.0,WeatherDisplay:10.37,2013-07-17 00:32:00,
2013-07-16 19:37:00,86.9,54.3,30.15,South,180,2.6,4.6,33,0.00,OVC,SCT,0.00,0.0,WeatherDisplay:10.37,2013-07-17 00:37:00,
2013-07-16 19:42:00,86.5,54.8,30.15,SSE,158,2.6,3.5,34,0.00,OVC,SCT,0.00,0.0,WeatherDisplay:10.37,2013-07-17 00:42:00,
2013-07-16 19:47:00,86.5,54.8,30.15,SSE,158,2.2,4.6,34,0.00,OVC,SCT,0.00,0.0,WeatherDisplay:10.37,2013-07-17 00:47:00,
2013-07-16 19:52:00,86.2,54.5,30.15,ESE,112,2.4,6.9,34,0.00,OVC,SCT,0.00,0.0,WeatherDisplay:10.37,2013-07-17 00:52:00,
2013-07-16 19:57:00,86.0,54.4,30.15,SSE,158,3.1,5.8,34,0.00,OVC,SCT,0.00,0.0,WeatherDisplay:10.37,2013-07-17 00:57:00,
2013-07-16 20:02:00,85.8,55.0,30.15,ESE,112,2.9,3.5,35,0.00,OVC,SCT,0.00,0.0,WeatherDisplay:10.37,2013-07-17 01:02:00,
2013-07-16 20:08:00,85.5,55.5,30.15,SSE,158,2.0,3.5,36,0.00,OVC,SCT,0.00,0.0,WeatherDisplay:10.37,2013-07-17 01:08:00,
2013-07-16 20:13:00,85.1,55.1,30.15,ESE,112,1.6,3.5,36,0.00,OVC,SCT,0.00,0.0,WeatherDisplay:10.37,2013-07-17 01:13:00,
2013-07-16 20:18:00,84.9,55.0,30.15,East,90,1.6,4.6,36,0.00,OVC,SCT,0.00,0.0,WeatherDisplay:10.37,2013-07-17 01:18:00,
2013-07-16 20:23:00,84.7,54.8,30.15,SSE,158,2.6,2.6,36,0.00,OVC,SCT,0.00,0.0,WeatherDisplay:10.37,2013-07-17 01:23:00,
2013-07-16 20:28:00,84.6,54.7,30.15,SSE,158,2.2,2.3,36,0.00,OVC,SCT,0.00,0.0,WeatherDisplay:10.37,2013-07-17 01:28:00,
2013-07-16 20:33:00,84.4,55.3,30.15,ESE,112,2.0,2.4,37,0.00,OVC,SCT,0.00,0.0,WeatherDisplay:10.37,2013-07-17 01:33:00,
2013-07-16 20:38:00,84.0,54.9,30.15,East,90,1.6,2.3,37,0.00,OVC,SCT,0.00,0.0,WeatherDisplay:10.37,2013-07-17 01:38:00,
2013-07-16 20:43:00,83.8,55.5,30.15,ESE,112,1.4,2.3,38,0.00,OVC,SCT,0.00,0.0,WeatherDisplay:10.37,2013-07-17 01:43:00,
2013-07-16 20:48:00,83.5,55.9,30.15,ESE,112,2.0,2.6,39,0.00,OVC,SCT,0.00,0.0,WeatherDisplay:10.37,2013-07-17 01:48:00,
2013-07-16 20:53:00,83.3,55.8,30.15,ESE,112,2.4,3.5,39,0.00,OVC,SCT,0.00,0.0,WeatherDisplay:10.37,2013-07-17 01:53:00,
2013-07-16 20:58:00,83.1,55.6,30.15,East,90,2.4,3.5,39,0.00,OVC,SCT,0.00,0.0,WeatherDisplay:10.37,2013-07-17 01:58:00,
2013-07-16 21:03:00,82.9,56.1,30.15,ESE,112,2.4,3.5,40,0.00,CLR,SCT,0.00,0.0,WeatherDisplay:10.37,2013-07-17 02:03:00,
2013-07-16 21:08:00,82.8,56.0,30.18,ESE,112,2.4,3.3,40,0.00,CLR,SCT,0.00,0.0,WeatherDisplay:10.37,2013-07-17 02:08:00,
2013-07-16 21:14:00,82.6,55.8,30.18,ESE,112,2.9,3.5,40,0.00,CLR,SCT,0.00,0.0,WeatherDisplay:10.37,2013-07-17 02:14:00,
2013-07-16 21:19:00,82.4,55.7,30.18,ESE,112,1.6,3.5,40,0.00,CLR,SCT,0.00,0.0,WeatherDisplay:10.37,2013-07-17 02:19:00,
2013-07-16 21:24:00,82.2,56.2,30.18,East,90,1.6,2.3,41,0.00,CLR,SCT,0.00,0.0,WeatherDisplay:10.37,2013-07-17 02:24:00,
2013-07-16 21:29:00,82.0,56.0,30.18,East,90,2.2,3.5,41,0.00,CLR,SCT,0.00,0.0,WeatherDisplay:10.37,2013-07-17 02:29:00,
2013-07-16 21:34:00,81.9,55.9,30.18,ESE,112,2.0,2.3,41,0.00,CLR,SCT,0.00,0.0,WeatherDisplay:10.37,2013-07-17 02:34:00,
2013-07-16 21:39:00,81.7,56.4,30.18,East,90,1.6,2.4,42,0.00,CLR,SCT,0.00,0.0,WeatherDisplay:10.37,2013-07-17 02:39:00,
2013-07-16 21:44:00,81.5,56.2,30.18,ESE,112,2.2,2.9,42,0.00,CLR,SCT,0.00,0.0,WeatherDisplay:10.37,2013-07-17 02:44:00,
2013-07-16 21:50:00,81.5,56.2,30.18,East,90,2.2,2.6,42,0.00,CLR,SCT,0.00,0.0,WeatherDisplay:10.37,2013-07-17 02:50:00,
2013-07-16 21:55:00,81.3,56.0,30.18,SE,135,2.0,2.6,42,0.00,CLR,SCT,0.00,0.0,WeatherDisplay:10.37,2013-07-17 02:55:00,
2013-07-16 22:00:00,81.1,55.9,30.18,ESE,112,1.4,2.4,42,0.00,CLR,SCT,0.00,0.0,WeatherDisplay:10.37,2013-07-17 03:00:00,
2013-07-16 22:05:00,81.0,55.7,30.18,ESE,112,1.6,2.9,42,0.00,CLR,SCT,0.00,0.0,WeatherDisplay:10.37,2013-07-17 03:05:00,
2013-07-16 22:10:00,80.8,56.2,30.18,ESE,112,2.4,3.5,43,0.00,CLR,SCT,0.00,0.0,WeatherDisplay:10.37,2013-07-17 03:10:00,
2013-07-16 22:16:00,80.8,56.2,30.18,East,90,1.6,2.3,43,0.00,CLR,SCT,0.00,0.0,WeatherDisplay:10.37,2013-07-17 03:16:00,
2013-07-16 22:21:00,80.6,56.0,30.18,ESE,112,2.2,3.5,43,0.00,CLR,SCT,0.00,0.0,WeatherDisplay:10.37,2013-07-17 03:21:00,
2013-07-16 22:26:00,80.4,56.5,30.18,SE,135,2.2,3.3,44,0.00,CLR,SCT,0.00,0.0,WeatherDisplay:10.37,2013-07-17 03:26:00,
2013-07-16 22:31:00,80.2,56.3,30.18,East,90,2.2,2.3,44,0.00,CLR,SCT,0.00,0.0,WeatherDisplay:10.37,2013-07-17 03:31:00,
2013-07-16 22:36:00,80.1,56.2,30.18,East,90,1.6,2.3,44,0.00,CLR,SCT,0.00,0.0,WeatherDisplay:10.37,2013-07-17 03:36:00,
2013-07-16 22:42:00,79.9,56.6,30.18,ESE,112,1.4,2.3,45,0.00,CLR,SCT,0.00,0.0,WeatherDisplay:10.37,2013-07-17 03:42:00,
2013-07-16 22:47:00,79.7,56.5,30.18,ESE,112,1.1,1.4,45,0.00,CLR,SCT,0.00,0.0,WeatherDisplay:10.37,2013-07-17 03:47:00,
2013-07-16 22:52:00,79.5,56.3,30.15,ESE,112,1.6,3.1,45,0.00,CLR,SCT,0.00,0.0,WeatherDisplay:10.37,2013-07-17 03:52:00,
2013-07-16 22:57:00,79.3,56.8,30.15,ESE,112,2.2,2.4,46,0.00,CLR,SCT,0.00,0.0,WeatherDisplay:10.37,2013-07-17 03:57:00,
2013-07-16 23:01:00,79.3,56.8,30.15,ENE,68,2.0,2.3,46,0.00,CLR,SCT,0.00,0.0,WeatherDisplay:10.37,2013-07-17 04:01:00,
2013-07-16 23:02:00,79.3,56.8,30.15,East,90,2.0,2.9,46,0.00,CLR,SCT,0.00,0.0,WeatherDisplay:10.37,2013-07-17 04:02:00,
2013-07-16 23:03:00,79.3,56.8,30.15,ESE,112,2.0,2.9,46,0.00,CLR,SCT,0.00,0.0,WeatherDisplay:10.37,2013-07-17 04:03:00,
2013-07-16 23:04:00,79.2,56.6,30.15,ESE,112,1.6,2.3,46,0.00,CLR,SCT,0.00,0.0,WeatherDisplay:10.37,2013-07-17 04:04:00,
2013-07-16 23:09:00,79.2,57.2,30.18,ESE,112,1.1,2.3,47,0.00,CLR,SCT,0.00,0.0,WeatherDisplay:10.37,2013-07-17 04:09:00,
2013-07-16 23:15:00,79.0,57.0,30.18,SE,124,2.0,4.0,47,0.00,CLR,SCT,0.00,0.0,WeatherDisplay:10.37,2013-07-17 04:15:00,
2013-07-16 23:20:00,79.0,57.6,30.18,ESE,112,1.1,2.3,48,0.00,CLR,SCT,0.00,0.0,WeatherDisplay:10.37,2013-07-17 04:20:00,
2013-07-16 23:25:00,78.8,57.4,30.18,ESE,112,1.6,2.3,48,0.00,CLR,SCT,0.00,0.0,WeatherDisplay:10.37,2013-07-17 04:25:00,
2013-07-16 23:30:00,78.6,57.3,30.18,East,90,0.0,2.3,48,0.00,CLR,SCT,0.00,0.0,WeatherDisplay:10.37,2013-07-17 04:30:00,
2013-07-16 23:35:00,78.4,58.8,30.18,SSW,202,0.0,1.1,51,0.00,CLR,SCT,0.00,0.0,WeatherDisplay:10.37,2013-07-17 04:35:00,
2013-07-16 23:41:00,78.3,58.1,30.18,East,90,2.2,3.5,50,0.00,CLR,SCT,0.00,0.0,WeatherDisplay:10.37,2013-07-17 04:41:00,
2013-07-16 23:46:00,78.3,58.1,30.18,ESE,112,1.1,2.3,50,0.00,CLR,SCT,0.00,0.0,WeatherDisplay:10.37,2013-07-17 04:46:00,
2013-07-16 23:51:00,78.1,57.9,30.18,SSE,158,0.0,1.1,50,0.00,CLR,SCT,0.00,0.0,WeatherDisplay:10.37,2013-07-17 04:51:00,
2013-07-16 23:55:00,78.1,57.9,30.18,ESE,112,0.9,2.4,50,0.00,CLR,SCT,0.00,0.0,WeatherDisplay:10.37,2013-07-17 04:55:00,
2013-07-16 23:59:00,77.9,57.8,30.18,ESE,112,0.0,1.1,50,0.00,CLR,SCT,0.00,0.0,WeatherDisplay:10.37,2013-07-17 04:59:00,